timestamp,wind_dir_avg,wind_spd_avg,wind_spd_max_dir,wind_spd_gust,battery_voltage,lat,long
2021-05-15 00:04:00+00:00,40.0,2.7,41.0,2.8,12.65,47.59359,-54.27349
2021-05-15 00:14:01+00:00,49.0,1.39,53.0,1.63,12.57,47.59359,-54.27349
2021-05-15 00:24:01+00:00,68.0,0.59,67.0,0.73,12.57,47.59359,-54.27349
2021-05-15 00:34:01+00:00,352.0,0.85,3.0,1.08,12.57,47.59359,-54.27349
2021-05-15 00:44:01+00:00,348.0,1.14,347.0,1.53,12.57,47.59359,-54.27349
2021-05-15 00:54:01+00:00,336.0,1.97,338.0,2.05,12.57,47.59359,-54.27349
2021-05-15 01:04:01+00:00,3.0,2.31,358.0,2.84,12.57,47.59359,-54.27349
2021-05-15 01:14:00+00:00,333.0,2.11,332.0,2.33,12.57,47.59359,-54.27349
2021-05-15 01:24:00+00:00,14.0,1.68,16.0,2.26,12.57,47.59359,-54.27349
2021-05-15 01:34:00+00:00,19.0,0.96,17.0,1.04,12.57,47.59359,-54.27349
2021-05-15 01:44:00+00:00,21.0,1.11,18.0,1.18,12.57,47.59359,-54.27349
2021-05-15 01:54:00+00:00,8.0,1.0,13.0,1.09,12.57,47.59359,-54.27349
2021-05-15 02:04:00+00:00,5.0,1.22,6.0,1.4,12.57,47.59359,-54.27349
2021-05-15 02:14:00+00:00,2.0,1.67,357.0,2.23,12.57,47.59359,-54.27349
2021-05-15 02:24:00+00:00,15.0,1.63,16.0,2.14,12.57,47.59359,-54.27349
2021-05-15 02:34:00+00:00,21.0,1.63,6.0,2.14,12.57,47.59359,-54.27349
2021-05-15 02:44:00+00:00,54.0,1.52,52.0,1.78,12.57,47.59359,-54.27349
2021-05-15 02:54:00+00:00,2.0,4.08,3.0,5.14,12.57,47.59359,-54.27349
2021-05-15 03:04:00+00:00,6.0,5.64,7.0,6.59,12.57,47.59359,-54.27349
2021-05-15 03:14:00+00:00,2.0,5.51,0.0,6.41,12.49,47.59359,-54.27349
2021-05-15 03:24:00+00:00,359.0,6.43,359.0,7.63,12.49,47.59359,-54.27349
2021-05-15 03:34:00+00:00,357.0,6.3,0.0,6.93,12.49,47.59359,-54.27349
2021-05-15 03:44:00+00:00,3.0,6.32,3.0,6.79,12.49,47.59359,-54.27349
2021-05-15 03:54:00+00:00,4.0,7.12,7.0,8.13,12.49,47.59359,-54.27349
2021-05-15 04:04:00+00:00,3.0,6.26,5.0,6.71,12.49,47.59359,-54.27349
2021-05-15 04:14:01+00:00,2.0,5.85,4.0,6.23,12.49,47.59359,-54.27349
2021-05-15 04:24:01+00:00,359.0,4.77,1.0,5.62,12.49,47.59359,-54.27349
2021-05-15 04:34:01+00:00,4.0,6.88,3.0,8.05,12.49,47.59359,-54.27349
2021-05-15 04:44:01+00:00,0.0,7.28,1.0,8.37,12.49,47.59359,-54.27349
2021-05-15 04:54:01+00:00,359.0,6.46,0.0,7.17,12.49,47.59359,-54.27349
2021-05-15 05:04:01+00:00,0.0,6.9,6.0,8.11,12.49,47.59359,-54.27349
2021-05-15 05:14:01+00:00,0.0,7.23,0.0,8.22,12.49,47.59359,-54.27349
2021-05-15 05:24:01+00:00,0.0,6.45,3.0,7.3,12.49,47.59359,-54.27349
2021-05-15 05:34:01+00:00,1.0,7.08,1.0,7.76,12.49,47.59359,-54.27349
2021-05-15 05:44:01+00:00,355.0,5.76,358.0,6.18,12.49,47.59359,-54.27349
2021-05-15 05:54:01+00:00,355.0,3.13,354.0,3.63,12.49,47.59359,-54.27349
2021-05-15 06:04:01+00:00,354.0,2.85,354.0,3.25,12.49,47.59359,-54.27349
2021-05-15 06:14:00+00:00,354.0,2.43,353.0,2.72,12.41,47.59359,-54.27349
2021-05-15 06:24:00+00:00,347.0,2.11,349.0,2.44,12.41,47.59359,-54.27349
2021-05-15 06:34:00+00:00,346.0,2.66,346.0,2.9,12.41,47.59359,-54.27349
2021-05-15 06:44:00+00:00,339.0,2.54,341.0,2.78,12.41,47.59359,-54.27349
2021-05-15 06:54:00+00:00,338.0,3.6,344.0,4.12,12.41,47.59359,-54.27349
2021-05-15 07:04:00+00:00,329.0,3.69,331.0,4.08,12.41,47.59359,-54.27349
2021-05-15 07:14:00+00:00,311.0,3.38,313.0,3.67,12.41,47.59359,-54.27349
2021-05-15 07:24:00+00:00,318.0,2.42,312.0,3.14,12.41,47.59359,-54.27349
2021-05-15 07:34:00+00:00,330.0,2.24,334.0,2.65,12.41,47.59359,-54.27349
2021-05-15 07:44:00+00:00,315.0,1.81,320.0,2.49,12.41,47.59359,-54.27349
2021-05-15 07:54:00+00:00,342.0,3.94,345.0,4.53,12.41,47.59359,-54.27349
2021-05-15 08:04:00+00:00,332.0,3.57,340.0,4.56,12.41,47.59359,-54.27349
2021-05-15 08:14:00+00:00,326.0,3.0,326.0,3.18,12.33,47.59359,-54.27349
2021-05-15 08:24:00+00:00,316.0,2.9,317.0,3.46,12.33,47.59359,-54.27349
2021-05-15 08:34:00+00:00,302.0,1.7,313.0,1.96,12.33,47.59359,-54.27349
2021-05-15 08:44:00+00:00,310.0,1.86,311.0,2.38,12.33,47.59359,-54.27349
2021-05-15 08:54:00+00:00,335.0,2.98,338.0,3.3,12.33,47.59359,-54.27349
2021-05-15 09:04:00+00:00,3.0,4.07,10.0,4.68,12.33,47.59359,-54.27349
2021-05-15 09:14:00+00:00,356.0,3.46,356.0,3.99,12.49,47.59359,-54.27349
2021-05-15 09:24:00+00:00,341.0,3.01,340.0,3.4,12.49,47.59359,-54.27349
2021-05-15 09:34:00+00:00,342.0,2.93,343.0,3.38,12.49,47.59359,-54.27349
2021-05-15 09:44:00+00:00,342.0,1.77,341.0,2.15,12.49,47.59359,-54.27349
2021-05-15 09:54:00+00:00,78.0,0.24,83.0,0.43,12.49,47.59359,-54.27349
2021-05-15 10:04:00+00:00,146.0,0.57,145.0,0.67,12.49,47.59359,-54.27349
2021-05-15 10:14:01+00:00,83.0,0.53,81.0,0.62,13.6,47.59359,-54.27349
2021-05-15 10:24:01+00:00,65.0,0.74,58.0,0.96,13.6,47.59359,-54.27349
2021-05-15 10:34:01+00:00,17.0,1.4,14.0,1.65,13.6,47.59359,-54.27349
2021-05-15 10:44:01+00:00,345.0,2.11,352.0,2.53,13.6,47.59359,-54.27349
2021-05-15 10:54:01+00:00,288.0,1.4,288.0,1.78,13.6,47.59359,-54.27349
2021-05-15 11:04:01+00:00,318.0,0.58,324.0,0.79,13.6,47.59359,-54.27349
2021-05-15 11:14:01+00:00,354.0,0.31,1.0,0.53,13.68,47.59359,-54.27349
2021-05-15 11:24:01+00:00,0.0,0.26,357.0,0.64,13.68,47.59359,-54.27349
2021-05-15 11:34:01+00:00,309.0,0.15,5.0,0.36,13.68,47.59359,-54.27349
2021-05-15 11:44:01+00:00,251.0,0.41,241.0,0.77,13.68,47.59359,-54.27349
2021-05-15 11:54:01+00:00,329.0,1.69,332.0,2.58,13.68,47.59359,-54.27349
2021-05-15 12:04:01+00:00,267.0,0.91,265.0,1.1,13.68,47.59359,-54.27349
2021-05-15 12:14:01+00:00,239.0,1.25,231.0,1.85,13.76,47.59359,-54.27349
2021-05-15 12:24:01+00:00,195.0,1.95,195.0,2.2,13.76,47.59359,-54.27349
2021-05-15 12:34:01+00:00,202.0,2.56,202.0,2.81,13.76,47.59359,-54.27349
2021-05-15 12:44:01+00:00,207.0,4.75,206.0,5.14,13.76,47.59359,-54.27349
2021-05-15 12:54:01+00:00,197.0,4.65,197.0,4.89,13.76,47.59359,-54.27349
2021-05-15 13:04:01+00:00,201.0,4.71,202.0,4.84,13.76,47.59359,-54.27349
2021-05-15 13:14:01+00:00,206.0,5.25,206.0,5.63,13.76,47.59359,-54.27349
2021-05-15 13:24:01+00:00,191.0,4.82,192.0,5.0,13.76,47.59359,-54.27349
2021-05-15 13:34:01+00:00,201.0,4.87,202.0,5.4,13.76,47.59359,-54.27349
2021-05-15 13:44:01+00:00,206.0,5.78,207.0,6.28,13.76,47.59359,-54.27349
2021-05-15 13:54:01+00:00,204.0,6.18,205.0,6.74,13.76,47.59359,-54.27349
2021-05-15 14:04:01+00:00,210.0,5.36,206.0,6.49,13.76,47.59359,-54.27349
2021-05-15 14:14:01+00:00,203.0,6.52,208.0,7.25,13.84,47.59359,-54.27349
2021-05-15 14:24:01+00:00,209.0,6.24,213.0,7.01,13.84,47.59359,-54.27349
2021-05-15 14:34:01+00:00,205.0,6.35,209.0,7.01,13.84,47.59359,-54.27349
2021-05-15 14:44:01+00:00,209.0,7.11,207.0,7.86,13.84,47.59359,-54.27349
2021-05-15 14:54:01+00:00,208.0,7.29,212.0,8.16,13.84,47.59359,-54.27349
2021-05-15 15:04:01+00:00,205.0,7.06,206.0,7.95,13.84,47.59359,-54.27349
2021-05-15 15:14:01+00:00,208.0,7.09,207.0,8.0,13.76,47.59359,-54.27349
2021-05-15 15:24:01+00:00,203.0,8.08,207.0,8.97,13.76,47.59359,-54.27349
2021-05-15 15:34:01+00:00,213.0,9.69,214.0,10.98,13.76,47.59359,-54.27349
2021-05-15 15:44:01+00:00,206.0,8.2,207.0,8.98,13.76,47.59359,-54.27349
2021-05-15 15:54:01+00:00,205.0,8.66,201.0,9.81,13.76,47.59359,-54.27349
2021-05-15 16:04:01+00:00,202.0,7.54,204.0,8.21,13.76,47.59359,-54.27349
2021-05-15 16:14:01+00:00,189.0,7.37,197.0,8.37,13.68,47.59359,-54.27349
2021-05-15 16:24:01+00:00,187.0,7.68,185.0,9.05,13.68,47.59359,-54.27349
2021-05-15 16:34:01+00:00,202.0,7.04,200.0,8.03,13.68,47.59359,-54.27349
2021-05-15 16:44:01+00:00,218.0,7.12,219.0,7.93,13.68,47.59359,-54.27349
2021-05-15 16:54:01+00:00,235.0,5.54,231.0,6.52,13.68,47.59359,-54.27349
2021-05-15 17:04:01+00:00,287.0,5.92,287.0,6.67,13.68,47.59359,-54.27349
2021-05-15 17:14:01+00:00,273.0,9.11,273.0,9.72,13.84,47.59359,-54.27349
2021-05-15 17:24:01+00:00,246.0,5.09,244.0,5.66,13.84,47.59359,-54.27349
2021-05-15 17:34:01+00:00,262.0,3.93,257.0,4.8,13.84,47.59359,-54.27349
2021-05-15 17:44:01+00:00,252.0,4.67,253.0,4.88,13.84,47.59359,-54.27349
2021-05-15 17:54:01+00:00,214.0,7.42,224.0,9.28,13.84,47.59359,-54.27349
2021-05-15 18:04:01+00:00,209.0,6.93,212.0,7.66,13.84,47.59359,-54.27349
2021-05-15 18:14:01+00:00,234.0,5.96,234.0,8.01,13.84,47.59359,-54.27349
2021-05-15 18:24:01+00:00,251.0,5.74,252.0,7.33,13.84,47.59359,-54.27349
2021-05-15 18:34:01+00:00,285.0,5.49,286.0,6.0,13.84,47.59359,-54.27349
2021-05-15 18:44:01+00:00,294.0,7.65,292.0,8.48,13.84,47.59359,-54.27349
2021-05-15 18:54:01+00:00,273.0,6.48,270.0,7.54,13.84,47.59359,-54.27349
2021-05-15 19:04:01+00:00,269.0,6.46,271.0,6.77,13.84,47.59359,-54.27349
2021-05-15 19:14:01+00:00,283.0,5.64,284.0,6.0,13.84,47.59359,-54.27349
2021-05-15 19:24:01+00:00,280.0,6.73,282.0,8.37,13.84,47.59359,-54.27349
2021-05-15 19:34:01+00:00,288.0,5.23,289.0,6.16,13.84,47.59359,-54.27349
2021-05-15 19:44:01+00:00,282.0,5.76,287.0,6.24,13.84,47.59359,-54.27349
2021-05-15 19:54:01+00:00,281.0,4.96,279.0,5.53,13.84,47.59359,-54.27349
2021-05-15 20:04:01+00:00,287.0,4.71,289.0,5.33,13.84,47.59359,-54.27349
2021-05-15 20:14:01+00:00,281.0,4.23,286.0,4.85,13.84,47.59359,-54.27349
2021-05-15 20:24:01+00:00,292.0,3.76,293.0,4.08,13.84,47.59359,-54.27349
2021-05-15 20:34:01+00:00,292.0,3.66,290.0,4.46,13.84,47.59359,-54.27349
2021-05-15 20:44:01+00:00,254.0,2.76,260.0,3.0,13.84,47.59359,-54.27349
2021-05-15 20:54:01+00:00,267.0,3.69,268.0,3.96,13.84,47.59359,-54.27349
2021-05-15 21:04:01+00:00,302.0,5.76,307.0,6.32,13.84,47.59359,-54.27349
2021-05-15 21:14:01+00:00,311.0,7.39,309.0,8.23,13.68,47.59359,-54.27349
2021-05-15 21:24:01+00:00,314.0,4.9,314.0,5.59,13.68,47.59359,-54.27349
2021-05-15 21:34:01+00:00,354.0,3.75,358.0,4.26,13.68,47.59359,-54.27349
2021-05-15 21:44:01+00:00,324.0,2.98,321.0,3.46,13.68,47.59359,-54.27349
2021-05-15 21:54:01+00:00,28.0,2.96,38.0,3.94,13.68,47.59359,-54.27349
2021-05-15 22:04:01+00:00,338.0,1.92,328.0,2.3,13.68,47.59359,-54.27349
2021-05-15 22:14:01+00:00,353.0,1.8,348.0,2.2,13.6,47.59359,-54.27349
2021-05-15 22:24:01+00:00,3.0,2.35,359.0,2.64,13.6,47.59359,-54.27349
2021-05-15 22:34:01+00:00,4.0,2.07,3.0,2.3,13.6,47.59359,-54.27349
2021-05-15 22:44:01+00:00,76.0,1.53,58.0,2.0,13.6,47.59359,-54.27349
2021-05-15 22:54:01+00:00,39.0,1.16,57.0,1.35,13.6,47.59359,-54.27349
2021-05-15 23:04:01+00:00,1.0,1.22,349.0,2.35,13.6,47.59359,-54.27349
2021-05-15 23:14:00+00:00,9.0,4.13,0.0,4.63,12.97,47.59359,-54.27349
2021-05-15 23:24:00+00:00,333.0,3.02,331.0,3.28,12.97,47.59359,-54.27349
2021-05-15 23:34:00+00:00,337.0,3.61,336.0,3.94,12.97,47.59359,-54.27349
2021-05-15 23:44:00+00:00,27.0,4.0,27.0,4.74,12.97,47.59359,-54.27349
2021-05-15 23:54:00+00:00,32.0,2.12,31.0,2.43,12.97,47.59359,-54.27349
